sat.trackr.live / text

‹ back to catalog

STARLINK-30246

NORAD 57615 · 2023-119P

PAYLOAD ACTIVE UNKNOWN

§ Identity

Operator
Country
US
Launch date
2023-08-11
Launch site
AFETR
Launch vehicle
Mass (kg)
RCS (m²)

Purposes: comms

External: N2YO · Heavens-Above · Gunter

§ Orbital elements

Epoch: 2026-05-24T23:19:44.262048Z

Period
94.27 min
Inclination
43.0026°
Eccentricity
0.0001456
Mean motion
15.27578119 rev/d
Perigee alt
482.1 km
Apogee alt
484.1 km
Semi-major
6,861.2 km
B*
4.0113e-5
RAAN
10.6820°
Arg perigee
265.6013°
Mean anomaly
94.4673°
Rev number
15,475

§ Raw data

STARLINK-302461 57615U 23119P   26144.97204007  .00000842  00000+0  40113-4 0  99922 57615  43.0026  10.6820 0001456 265.6013  94.4673 15.27578119154758

JSON: /api/v1/satellites/57615 · /tle

For live sub-satellite position, see the globe view (requires WebGL).

§ Visibility from observer

Set your observer location to see the next 7 days of passes ≥ 10°. The values pass through the URL so the page stays shareable.

No JS? Fill the form by hand. The geolocation button needs JavaScript.